Location: Tamazert
(32.6352°N, 5.2072°W)
Time: 04:23:16
(UTC+00:00)

Vanguard 2 - Pass Details

Date: 06 October 2022
Orbit: 553 x 2933 km, 32.9° (Epoch: 04 December)

Event Time Altitude Azimuth Distance (km) Brightness Sun altitude
Rises 11:33:01 0° 236° (WSW) 3,846 11.3 51.2°
Reaches altitude 10° 11:35:17 10° 233° (SW) 3,128 11.0 51.3°
Maximum altitude 11:43:14 62° 154° (SSE) 1,854 11.6 51.7°
Drops below altitude 10° 11:56:38 10° 78° (ENE) 5,075 11.8 52.0°
Sets 12:01:22 0° 76° (ENE) 6,370 12.1 52.1°
